Погода в Аджмане

Объединённые Арабские Эмираты     25°23′31″N   55°29′15″E
темп.,
°C
ветер,
м/с
пор.,
м/с
влажн.,
%
обл.,
%
осадки,
мм/ч
давл.,
гПа
погр.,
м
13 апреля, вт
вт1301:00+27в33460 0.0 101113
04:00+27в44410 0.0 101023
07:00+28вюв33450 0.0 101124
10:00+32зсз12400 0.0 1012438
13:00+29ссз67580 0.0 1011193
16:00+29ссз57590 0.0 1009211
19:00+27ссв33615 0.0 101015
22:00+28в22491 0.0 101011
14 апреля, ср
ср1401:00+27ссз225453 0.0 100911
04:00+27в554875 0.0 100838
07:00+27ссв5764100 0.0 1010126
10:00+29св685075 0.0 1012326
13:00+29с4447100 0.0 1009335
16:00+29ссз5652100 0.0 1008164
19:00+28ссз3354100 0.0 100814
22:00+28в225192 0.0 100811
15 апреля, чт
чт1501:00+27зсз4565100 0.0 100862
04:00+27зюз4466100 0.0 100854
07:00+27ююз556542 0.0 100989
10:00+29юз545715 0.0 1010215
13:00+29зюз78574 0.0 1009326
16:00+28зюз81165100 0.0 1007250
19:00+26зюз71374100 0.0 1008221
22:00
16 апреля, пт
пт1601:00+25ю2377100 0.0 100880
04:00+25ююз4476100 0.0 1007133
07:00+25ююз56732 0.0 1009163
10:00+28зюз775884 0.0 1010384
13:00+28зюз8855100 0.0 1009391
16:00+27зюз8961100 0.0 1008319
19:00+26зюз8117184 0.0 1009321
22:00+25зюз46690 0.0 1010349
17 апреля, сб
сб1701:00+24юз45660 0.0 1009343
04:00+23ююз45680 0.0 1009361
07:00+23ю45680 0.0 1011286
10:00+27зюз5652100 0.0 1011608
13:00+27зюз6655100 0.0 1010448
16:00+27зюз786332 0.0 1009499
19:00+25зюз687474 0.0 1010324
22:00+25юз5673100 0.0 1012317